sat.trackr.live / text

‹ back to catalog

STARLINK-32094

NORAD 59696 · 2024-086Q

PAYLOAD ACTIVE UNKNOWN

§ Identity

Operator
Country
US
Launch date
2024-05-08
Launch site
AFETR
Launch vehicle
Mass (kg)
RCS (m²)

Purposes: comms

External: N2YO · Heavens-Above · Gunter

§ Orbital elements

Epoch: 2026-09-21T16:27:40.128768Z

Period
94.27 min
Inclination
43.0050°
Eccentricity
0.0001459
Mean motion
15.27579221 rev/d
Perigee alt
482.1 km
Apogee alt
484.1 km
Semi-major
6,861.2 km
B*
2.0666e-5
RAAN
33.3172°
Arg perigee
275.5367°
Mean anomaly
84.5318°
Rev number
13,408

§ Raw data

STARLINK-320941 59696U 24086Q   26264.68588112  .00000306  00000+0  20666-4 0  99962 59696  43.0050  33.3172 0001459 275.5367  84.5318 15.27579221134088

JSON: /api/v1/satellites/59696 · /tle

For live sub-satellite position, see the globe view (requires WebGL).

§ Visibility from observer

Set your observer location to see the next 7 days of passes ≥ 10°. The values pass through the URL so the page stays shareable.

No JS? Fill the form by hand. The geolocation button needs JavaScript.